Corsa — V2PZ2 — position and weather

sailwx.info

Track history (hours):
 
Tides and Currents Weather Stations Pressure Air Temp Water Temp Dewpoint Dewpoint Depression Visibility Wind Speed Wind Dir Waves Ship Positions

Corsa

Last reported at 2014-Jul-31 19:32 UTC. Time now 2014-Jul-31 19:44 UTC.
Position N 44°25' E 037°24'.

Length 101 m; draft 7.1 m.

Type: Cargo ship. MMSI: 304624000.

Date/timePositionNaut miles runAvg speedWind from/ knotsBaromVisibWave heightAir tempDewpointWater temp
2014-Jul-31 19:32N 44°25' E 037°24'13 6.1
2014-Jul-31 17:29N 44°26' E 037°06'6 6.5
2014-Jul-31 16:32N 44°26' E 036°58'6 6.1
2014-Jul-31 15:34N 44°27' E 036°49'1 0.7
2014-Jul-31 14:14N 44°27' E 036°48'1 0.9
2014-Jul-31 13:34N 44°26' E 036°49'1 0.9
2014-Jul-31 12:33N 44°26' E 036°50'  
2014-Jul-26 11:24N 40°41' E 028°42'1012.3
2014-Jul-26 10:33N 40°30' E 028°43'1412.3
2014-Jul-26 09:25N 40°25' E 029°01'3 0.6
2014-Jul-26 03:33N 40°25' E 029°05'0 0.0
2014-Jul-26 00:22N 40°25' E 029°05'0 0.0
2014-Jul-25 23:32N 40°25' E 029°05'26 3.2
2014-Jul-25 15:27N 40°47' E 028°47'1211.0
2014-Jul-25 14:24N 40°57' E 028°53'1 0.4
2014-Jul-25 13:04N 40°57' E 028°52'0 0.0
2014-Jul-25 11:10N 40°57' E 028°52'1 1.3
2014-Jul-25 10:33N 40°57' E 028°53'343 8.0
2014-Jul-23 15:33N 46°30' E 030°46'4 0.4
2014-Jul-23 05:15N 46°28' E 030°52'0 0.0
2014-Jul-23 04:33N 46°28' E 030°52'0 0.0
2014-Jul-23 03:30N 46°28' E 030°52'2 0.3
2014-Jul-22 21:31N 46°27' E 030°52'9512.0
2014-Jul-22 13:33N 45°13' E 032°18'2712.1
2014-Jul-22 11:22N 44°53' E 032°43'1112.3
2014-Jul-22 10:30N 44°45' E 032°54'1112.1
2014-Jul-22 09:33N 44°37' E 033°04'4611.3
2014-Jul-22 05:30N 44°18' E 034°02'1212.4
2014-Jul-22 04:34N 44°18' E 034°19'1312.6
2014-Jul-22 03:34N 44°19' E 034°36'1312.9
2014-Jul-22 02:33N 44°20' E 034°54'1312.6
2014-Jul-22 01:33N 44°21' E 035°12'1212.4
2014-Jul-22 00:33N 44°22' E 035°29'1312.6
2014-Jul-21 23:33N 44°24' E 035°46'1312.8
2014-Jul-21 22:34N 44°26' E 036°04'1312.6
2014-Jul-21 21:33N 44°29' E 036°21'  
Track history (hours):
 
Tides and Currents Weather Stations Pressure Air Temp Water Temp Dewpoint Dewpoint Depression Visibility Wind Speed Wind Dir Waves Ship Positions

Corsa

Last reported at 2014-Jul-31 19:32 UTC. Time now 2014-Jul-31 19:44 UTC.
Position N 44°25' E 037°24'.

Length 101 m; draft 7.1 m.

Type: Cargo ship. MMSI: 304624000.

Date/timePositionNaut miles runAvg speedWind from/ knotsBaromVisibWave heightAir tempDewpointWater temp
2014-Jul-31 19:32N 44°25' E 037°24'13 6.1
2014-Jul-31 17:29N 44°26' E 037°06'6 6.5
2014-Jul-31 16:32N 44°26' E 036°58'6 6.1
2014-Jul-31 15:34N 44°27' E 036°49'1 0.7
2014-Jul-31 14:14N 44°27' E 036°48'1 0.9
2014-Jul-31 13:34N 44°26' E 036°49'1 0.9
2014-Jul-31 12:33N 44°26' E 036°50'  
2014-Jul-26 11:24N 40°41' E 028°42'1012.3
2014-Jul-26 10:33N 40°30' E 028°43'1412.3
2014-Jul-26 09:25N 40°25' E 029°01'3 0.6
2014-Jul-26 03:33N 40°25' E 029°05'0 0.0
2014-Jul-26 00:22N 40°25' E 029°05'0 0.0
2014-Jul-25 23:32N 40°25' E 029°05'26 3.2
2014-Jul-25 15:27N 40°47' E 028°47'1211.0
2014-Jul-25 14:24N 40°57' E 028°53'1 0.4
2014-Jul-25 13:04N 40°57' E 028°52'0 0.0
2014-Jul-25 11:10N 40°57' E 028°52'1 1.3
2014-Jul-25 10:33N 40°57' E 028°53'343 8.0
2014-Jul-23 15:33N 46°30' E 030°46'4 0.4
2014-Jul-23 05:15N 46°28' E 030°52'0 0.0
2014-Jul-23 04:33N 46°28' E 030°52'0 0.0
2014-Jul-23 03:30N 46°28' E 030°52'2 0.3
2014-Jul-22 21:31N 46°27' E 030°52'9512.0
2014-Jul-22 13:33N 45°13' E 032°18'2712.1
2014-Jul-22 11:22N 44°53' E 032°43'1112.3
2014-Jul-22 10:30N 44°45' E 032°54'1112.1
2014-Jul-22 09:33N 44°37' E 033°04'4611.3
2014-Jul-22 05:30N 44°18' E 034°02'1212.4
2014-Jul-22 04:34N 44°18' E 034°19'1312.6
2014-Jul-22 03:34N 44°19' E 034°36'1312.9
2014-Jul-22 02:33N 44°20' E 034°54'1312.6
2014-Jul-22 01:33N 44°21' E 035°12'1212.4
2014-Jul-22 00:33N 44°22' E 035°29'1312.6
2014-Jul-21 23:33N 44°24' E 035°46'1312.8
2014-Jul-21 22:34N 44°26' E 036°04'1312.6
2014-Jul-21 21:33N 44°29' E 036°21'  

Dump ship's entire track history